Change the Weather History Date:

Tuesday, April 16, 2013

  Actual Average Record
Temperature  
Mean Temperature 45 °F 41 °F  
Max Temperature 53 °F 51 °F 79 °F (2012)
Min Temperature 37 °F 31 °F 14 °F (1930)
Degree Days  
Heating Degree Days 20 24  
Month to date heating degree days 461 440  
Since 1 July heating degree days 7019 7639  
Cooling Degree Days 0 0  
Month to date cooling degree days 0 0  
Year to date cooling degree days 0 0  
Moisture  
Dew Point 36 °F    
Average Humidity 70    
Maximum Humidity 89    
Minimum Humidity 50    
Precipitation  
Precipitation 0.02 in 0.12 in 1.98 in (2007)
Month to date precipitation 0.95 2.03  
Year to date precipitation 5.88 10.20  
Sea Level Pressure  
Sea Level Pressure 30.16 in    
Wind  
Wind Speed 7 mph (South)    
Max Wind Speed 17 mph    
Max Gust Speed 26 mph    
Visibility 10 miles    
Events Rain    
T = Trace of Precipitation, MM = Missing Value Source: NWS Daily Summary

Daily Weather History Graph

Daily Weather History Graph

Search for Another Location

Airport or City:

Trip Planner

Search our weather history database for the weather conditions in past years. The results will help you decide how hot, cold, wet, or windy it might be!

Date:

Astronomy

Apr. 16, 2013 Rise Set
Actual Time 5:46 AM EDT 7:22 PM EDT
Civil Twilight 5:15 AM EDT 7:54 PM EDT
Nautical Twilight 4:38 AM EDT 8:32 PM EDT
Astronomical Twilight 3:57 AM EDT 9:13 PM EDT
Moon 9:54 AM EDT (4/16) 12:25 AM EDT (4/16)
Length of Visible Light 14h 38m
Length of Day
13h 35m
Waxing Crescent, 33% of the Moon is Illuminated
Apr 16
Waxing Crescent
Apr 18
First Quarter
Apr 25
Full
May 2
Last Quarter
May 9
New

Hourly Weather History & Observations

Time (EDT) Temp. Windchill Dew Point Humidity Pressure Visibility Wind Dir Wind Speed Gust Speed Precip Events Conditions
12:53 AM 37.9 °F 33.5 °F 34.0 °F 86% 30.40 in 10.0 mi South 5.8 mph - N/A   Overcast
1:29 AM 37.4 °F 33.8 °F 33.8 °F 87% 30.37 in 10.0 mi Variable 4.6 mph - N/A   Mostly Cloudy
1:53 AM 37.0 °F 33.3 °F 34.0 °F 89% 30.39 in 10.0 mi SSE 4.6 mph - N/A   Overcast
2:53 AM 37.0 °F 34.5 °F 34.0 °F 89% 30.38 in 10.0 mi Variable 3.5 mph - N/A   Overcast
3:30 AM 37.4 °F 33.8 °F 33.8 °F 87% 30.36 in 10.0 mi Variable 4.6 mph - N/A   Overcast
3:53 AM 37.0 °F 34.5 °F 33.1 °F 86% 30.38 in 10.0 mi Variable 3.5 mph - N/A   Overcast
4:53 AM 37.0 °F 34.5 °F 33.1 °F 86% 30.37 in 10.0 mi Variable 3.5 mph - N/A   Overcast
5:53 AM 37.0 °F 34.5 °F 33.1 °F 86% 30.36 in 10.0 mi Variable 3.5 mph - N/A   Overcast
6:17 AM 37.4 °F 33.8 °F 33.8 °F 87% 30.33 in 10.0 mi Variable 4.6 mph - N/A   Overcast
6:53 AM 37.9 °F 33.5 °F 34.0 °F 86% 30.36 in 10.0 mi South 5.8 mph - N/A   Overcast
8:53 AM 39.9 °F 35.1 °F 35.1 °F 83% 30.32 in 10.0 mi South 6.9 mph - N/A   Overcast
9:04 AM 41.0 °F 37.1 °F 35.6 °F 81% 30.29 in 10.0 mi Variable 5.8 mph - N/A   Overcast
9:39 AM 44.6 °F - 35.6 °F 71% 30.28 in 10.0 mi Calm Calm - N/A   Mostly Cloudy
9:49 AM 46.4 °F 45.2 °F 35.6 °F 66% 30.27 in 10.0 mi Variable 3.5 mph - N/A   Scattered Clouds
9:53 AM 46.0 °F 42.5 °F 36.0 °F 68% 30.29 in 10.0 mi Variable 6.9 mph - N/A   Scattered Clouds
10:53 AM 50.0 °F - 34.0 °F 54% 30.25 in 10.0 mi South 9.2 mph 19.6 mph N/A   Overcast
11:53 AM 50.0 °F - 36.0 °F 59% 30.21 in 10.0 mi South 10.4 mph 20.7 mph N/A   Mostly Cloudy
12:53 PM 53.1 °F - 37.0 °F 55% 30.17 in 10.0 mi South 11.5 mph 21.9 mph N/A   Mostly Cloudy
1:53 PM 51.1 °F - 36.0 °F 56% 30.13 in 10.0 mi SSE 11.5 mph 18.4 mph 0.00 in   Overcast
2:53 PM 53.1 °F - 35.1 °F 50% 30.10 in 10.0 mi SSE 12.7 mph 26.5 mph N/A   Overcast
3:53 PM 51.1 °F - 34.0 °F 52% 30.06 in 10.0 mi South 9.2 mph 18.4 mph N/A   Overcast
4:53 PM 48.0 °F - 34.0 °F 58% 30.07 in 9.0 mi South 8.1 mph - 0.00 in Rain Light Rain
5:53 PM 45.0 °F 40.1 °F 37.9 °F 76% 30.04 in 10.0 mi South 9.2 mph - 0.01 in   Overcast
6:53 PM 44.1 °F 40.1 °F 37.9 °F 79% 29.99 in 10.0 mi Variable 6.9 mph 21.9 mph N/A   Overcast
7:44 PM 42.8 °F 38.6 °F 39.2 °F 87% 29.93 in 10.0 mi South 6.9 mph 18.4 mph 0.00 in   Overcast
7:53 PM 43.0 °F 39.5 °F 39.9 °F 89% 29.95 in 10.0 mi Variable 5.8 mph - 0.00 in   Overcast
8:08 PM 42.8 °F 37.5 °F 39.2 °F 87% 29.93 in 10.0 mi South 9.2 mph - N/A   Overcast
8:53 PM 44.1 °F 40.1 °F 39.9 °F 85% 29.93 in 10.0 mi Variable 6.9 mph - N/A   Overcast
9:13 PM 44.6 °F - 39.2 °F 81% 29.90 in 10.0 mi Calm Calm - N/A   Overcast
9:44 PM 44.6 °F 41.4 °F 39.2 °F 81% 29.89 in 10.0 mi Variable 5.8 mph - N/A   Overcast
9:53 PM 44.1 °F 40.1 °F 39.9 °F 85% 29.91 in 10.0 mi Variable 6.9 mph - N/A   Overcast
10:53 PM 44.1 °F 40.8 °F 41.0 °F 89% 29.88 in 10.0 mi Variable 5.8 mph - 0.01 in Rain Light Rain
11:53 PM 46.0 °F 41.9 °F 42.1 °F 86% 29.90 in 7.0 mi WSW 8.1 mph - 0.00 in Rain Light Rain